Simultaneous Nadir Overpasses (SNOs) Predictions

Prediction of SNOs between GOES-16 and METOP-C Satellite Orbit:

Table of predicted SNOs for the next 14.0 days since TLE Epoch: 4/28/2024
Index Date Time (GOES-16) GOES-16 Lat,Lon METOP-C Lat,Lon Distance(km) Time Diff (sec)
1 04/29/2024 14:34:19 0.04, -75.22 0.32, -76.47 142.02 80
2 04/30/2024 14:16:20 0.03, -75.22 -0.82, -71.48 427.46 80
3 05/02/2024 02:35:20 -0.03, -75.21 -0.21, -76.07 96.79 80
4 05/03/2024 02:12:01 -0.03, -75.22 0.87, -71.06 473.18 80
5 05/04/2024 14:30:54 0.03, -75.25 0.10, -75.63 43.06 80
6 05/07/2024 02:29:15 -0.03, -75.27 -0.02, -75.23 4.78 80
7 05/09/2024 14:30:08 0.02, -75.32 -0.08, -74.79 60.12 80
8 05/11/2024 02:49:08 -0.01, -75.33 -0.92, -79.38 462.06 80
9 05/12/2024 02:25:49 -0.01, -75.34 0.19, -74.38 109.08 80
